Location: Unspecified
(40.5964°N, 0.0000°E)
Time: 06:54:32
(UTC+00:00)

FORMOSAT 3A - Visible Passes

Search period start: 04 April 2026 00:00
Search period end: 14 April 2026 00:00
Orbit: 753 x 822 km, 72.0° (Epoch: 29 March)

Date Brightness Start Highest point End Pass type
(mag) Time Alt. Az. Time Alt. Az. Time Alt. Az.
4 Apr 8.0 04:25:52 10° NNW 04:31:13 54° ENE 04:36:36 10° SE visible
4 Apr 7.4 19:06:24 10° SSW 19:11:33 71° WNW 19:16:49 10° NNE visible
4 Apr 10.4 20:54:22 10° WNW 20:55:19 10° NW 20:56:16 10° NW visible
5 Apr 8.7 03:54:37 10° N 03:59:41 38° ENE 04:04:47 10° SE visible
5 Apr 10.1 20:20:35 10° W 20:23:31 15° NW 20:26:30 10° NNW visible
6 Apr 9.2 03:23:30 10° N 03:28:05 27° ENE 03:32:42 10° ESE visible
6 Apr 7.5 05:05:49 10° NW 05:10:57 42° WSW 05:16:07 10° S visible
6 Apr 9.7 19:47:53 10° WSW 19:51:48 21° NW 19:55:46 10° N visible
7 Apr 9.7 02:52:32 10° N 02:56:25 19° NE 03:00:18 10° E visible
7 Apr 7.1 04:34:12 10° NNW 04:39:36 63° WSW 04:45:03 10° S visible
7 Apr 9.2 19:15:37 10° WSW 19:20:08 30° WNW 19:24:45 10° N visible
8 Apr 10.1 02:21:54 10° NNE 02:24:40 14° NE 02:27:27 10° E visible
8 Apr 7.1 04:02:41 10° NNW 04:08:12 88° ENE 04:13:44 10° SSE visible
9 Apr 7.6 03:31:18 10° NNW 03:36:44 61° ENE 03:42:11 10° SE visible
10 Apr 8.3 03:00:01 10° N 03:05:12 42° ENE 03:10:26 10° SE visible
10 Apr 8.0 04:43:13 10° NW 04:47:41 26° W 04:52:10 10° SSW visible
10 Apr 10.1 19:26:29 10° W 19:29:05 14° NW 19:31:43 10° NNW visible
11 Apr 8.9 02:28:51 10° N 02:33:37 30° ENE 02:38:25 10° ESE visible
11 Apr 7.6 04:11:22 10° NW 04:16:24 38° WSW 04:21:27 10° S visible
12 Apr 9.4 01:57:49 10° N 02:01:59 21° NE 02:06:08 10° ESE visible
12 Apr 7.1 03:39:41 10° NNW 03:45:04 56° WSW 03:50:28 10° S visible
13 Apr 9.8 01:27:03 10° NNE 01:30:15 15° NE 01:33:26 10° E visible
13 Apr 7.0 03:08:09 10° NNW 03:13:40 83° WSW 03:19:12 10° SSE visible
